EW9154 Weather Reports


time (UTC)temp
F
wind
direction
speed
knots
gust
knots
rain 1hr
in
rain 24hr
in
rain mn
in
humidity
%
barometer
mb
20220930165305 65 259 1.7 12.2 0.00 0.01 0.01 50 1036.2
20220930165016 65 219 1.7 12.2 0.00 0.01 0.01 50 1036.2
20220930164225 65 200 1.7 10.4 0.00 0.01 0.01 51 1036.2
20220930163720 65 181 0.9 8.7 0.00 0.01 0.01 50 1036.2
20220930163154 65 229 0.9 5.2 0.00 0.01 0.01 51 1036.1
20220930162637 65 205 0.9 11.3 0.00 0.01 0.01 49 1036.2
20220930162121 66 227 1.7 14.8 0.00 0.01 0.01 50 1036.1
20220930161624 65 192 2.6 17.4 0.00 0.01 0.01 50 1036.1
20220930161055 65 194 0.9 17.4 0.00 0.01 0.01 50 1036.2
20220930160534 65 172 0.0 9.6 0.00 0.01 0.01 54 1036.1
20220930160013 64 211 0.0 9.6 0.00 0.01 0.01 54 1036.1
20220930155745 62 205 0.9 9.6 0.00 0.01 0.01 55 1036.1
20220930154958 62 208 0.9 14.8 0.00 0.01 0.01 56 1036.1
20220930154954 62 171 0.9 14.8 0.00 0.01 0.01 56 1036.1
20220930153953 62 167 0.0 7.0 0.00 0.01 0.01 57 1036.2
20220930153922 61 222 0.0 10.4 0.00 0.01 0.01 60 1036.5
20220930153521 61 185 0.0 10.4 0.00 0.01 0.01 58 1036.4
20220930152412 61 234 0.0 1.7 0.00 0.01 0.01 60 1036.6
20220930152142 60 187 0.0 0.9 0.00 0.01 0.01 62 1036.6
20220930152027 59 138 0.0 1.7 0.00 0.01 0.01 64 1036.6
20220930151351 59 123 0.0 1.7 0.00 0.01 0.01 64 1036.6
20220930150335 58 114 0.0 0.0 0.00 0.01 0.01 65 1036.6
20220930145858 57 128 0.0 0.0 0.00 0.01 0.01 68 1036.7
20220930145832 58 93 0.0 0.0 0.00 0.01 0.01 67 1036.7
20220930145520 56 142 0.0 0.0 0.00 0.01 0.01 70 1036.7
20220930144219 55 197 0.0 0.0 0.00 0.01 0.01 69 1036.7
20220930143924 55 192 0.0 0.9 0.00 0.01 0.01 70 1036.9
20220930143150 55 151 0.0 1.7 0.00 0.01 0.01 71 1036.7
20220930142649 55 122 0.0 1.7 0.00 0.01 0.01 73 1036.7
20220930142126 54 130 0.0 0.9 0.00 0.01 0.01 72 1036.7
20220930141600 54 104 0.0 0.9 0.00 0.01 0.01 73 1036.6
20220930141037 53 103 0.0 0.0 0.00 0.01 0.01 73 1036.5
20220930140806 53 94 0.0 3.5 0.00 0.01 0.01 74 1036.7
20220930140035 53 98 0.0 3.5 0.00 0.01 0.01 74 1036.5
20220930135539 53 133 0.0 1.7 0.00 0.01 0.01 75 1036.4
20220930134436 53 127 0.0 3.5 0.00 0.01 0.01 75 1036.3
20220930134420 52 123 0.0 3.5 0.00 0.01 0.01 75 1036.3
20220930133414 52 128 0.0 1.7 0.00 0.01 0.01 75 1036.3
20220930132902 52 133 0.0 2.6 0.00 0.01 0.01 76 1036.4
20220930132401 52 119 0.0 2.6 0.00 0.01 0.01 75 1036.5
20220930132337 52 117 0.0 1.7 0.00 0.01 0.01 76 1036.5
20220930131309 52 105 0.0 0.9 0.00 0.01 0.01 76 1036.6
20220930131036 52 134 0.0 0.0 0.00 0.01 0.01 76 1036.5
20220930130531 52 127 0.0 0.0 0.00 0.01 0.01 76 1036.9
20220930130019 52 121 0.0 0.0 0.00 0.01 0.01 76 1037.0
20220930125455 52 123 0.0 0.0 0.00 0.01 0.01 76 1036.6
20220930124718 52 105 0.0 0.9 0.00 0.01 0.01 76 1036.7
20220930124446 51 120 0.0 0.9 0.00 0.01 0.01 77 1036.6
20220930123701 51 128 0.0 0.0 0.00 0.01 0.01 77 1036.6
20220930123429 51 128 0.0 0.0 0.00 0.01 0.01 77 1036.6
20220930122656 51 126 0.0 0.0 0.00 0.01 0.01 77 1036.3
20220930122423 51 132 0.0 0.0 0.00 0.01 0.01 77 1036.2
20220930121651 51 180 0.0 0.0 0.00 0.01 0.01 77 1036.1
20220930121125 51 141 0.0 0.0 0.00 0.01 0.01 77 1036.1
20220930120829 51 169 0.0 0.0 0.00 0.01 0.01 77 1036.2
20220930120317 51 221 0.0 0.0 0.00 0.01 0.01 76 1036.4
20220930120041 51 132 0.0 0.0 0.00 0.01 0.01 77 1036.2
20220930115016 52 225 0.0 0.9 0.00 0.01 0.01 76 1036.4
20220930114723 52 202 0.0 0.9 0.00 0.01 0.01 75 1036.4
20220930113445 52 202 0.0 0.9 0.00 0.01 0.01 74 1036.4
20220930112927 52 201 0.0 7.8 0.00 0.01 0.01 74 1036.3
20220930112704 52 169 0.0 0.9 0.00 0.01 0.01 74 1036.3
20220930112132 53 167 0.0 7.0 0.00 0.01 0.01 73 1036.3
20220930111358 52 174 0.0 7.0 0.00 0.01 0.01 73 1036.2
20220930110840 52 198 0.9 10.4 0.00 0.01 0.01 74 1036.2
20220930110340 52 195 0.9 11.3 0.00 0.01 0.01 74 1036.2
20220930110106 52 205 1.7 6.1 0.00 0.01 0.01 74 1036.1
20220930105315 52 168 2.6 12.2 0.00 0.01 0.01 73 1036.0
20220930104813 52 200 0.9 10.4 0.00 0.01 0.01 73 1035.9
20220930104517 53 202 0.9 11.3 0.00 0.01 0.01 73 1035.8
20220930104222 53 198 0.9 11.3 0.00 0.01 0.01 73 1035.9
20220930103154 53 192 0.9 12.2 0.00 0.01 0.01 73 1036.1
20220930103128 53 165 1.7 12.2 0.00 0.01 0.01 73 1036.0
20220930102116 53 196 1.7 11.3 0.00 0.01 0.01 73 1036.1
20220930101615 53 227 1.7 9.6 0.00 0.01 0.01 73 1036.0
20220930101047 52 195 0.9 8.7 0.00 0.01 0.01 74 1035.9
20220930100816 52 180 0.9 7.8 0.00 0.01 0.01 74 1036.1
20220930100042 52 194 0.9 7.8 0.00 0.01 0.01 74 1036.1
20220930095517 52 187 0.0 7.8 0.00 0.01 0.01 74 1036.2
20220930095245 52 187 0.0 7.0 0.00 0.01 0.01 74 1036.2
20220930094518 52 200 0.9 7.0 0.00 0.01 0.01 74 1036.1
20220930094222 52 173 0.0 7.0 0.00 0.01 0.01 74 1036.2
20220930093449 52 207 0.0 5.2 0.00 0.01 0.01 74 1036.1
20220930093158 53 196 0.9 7.8 0.00 0.01 0.01 74 1036.1
20220930092546 53 213 0.9 7.8 0.00 0.01 0.01 74 1036.1
20220930091400 53 182 0.0 7.0 0.00 0.01 0.01 74 1036.0
20220930090859 53 184 0.0 6.1 0.00 0.01 0.01 74 1036.0
20220930090354 53 189 0.0 5.2 0.00 0.01 0.01 74 1036.0
20220930085853 53 181 0.0 9.6 0.00 0.01 0.01 74 1035.9
20220930085618 53 209 0.9 9.6 0.00 0.01 0.01 73 1036.0
20220930084833 53 206 1.7 11.3 0.00 0.01 0.01 73 1036.0
20220930084307 53 198 0.9 11.3 0.00 0.01 0.01 73 1036.0
20220930083741 53 185 0.9 8.7 0.00 0.01 0.01 74 1036.1
20220930083507 53 215 1.7 9.6 0.00 0.01 0.01 73 1036.1
20220930082735 53 197 1.7 15.6 0.00 0.01 0.01 73 1036.1
20220930082217 53 171 1.7 15.6 0.00 0.01 0.01 74 1036.2
20220930081954 53 188 1.7 11.3 0.01 0.01 0.01 74 1036.2
20220930081426 53 214 1.7 8.7 0.01 0.01 0.01 74 1036.3
20220930080859 53 217 0.9 11.3 0.01 0.01 0.01 74 1036.4
20220930080330 53 178 0.9 11.3 0.01 0.01 0.01 73 1036.5
20220930075557 54 197 0.0 8.7 0.01 0.01 0.01 72 1036.6
20220930075030 54 194 0.0 8.7 0.01 0.01 0.01 72 1036.7
20220930075022 54 227 0.9 8.7 0.01 0.01 0.01 71 1036.9
20220930074014 55 194 1.7 12.2 0.01 0.01 0.01 71 1036.9
20220930073543 55 134 0.9 12.2 0.01 0.01 0.01 68 1036.7
20220930073532 55 185 2.6 12.2 0.01 0.01 0.01 69 1036.7
20220930073303 55 167 1.7 12.2 0.01 0.01 0.01 69 1036.7
20220930071658 56 250 1.7 11.3 0.00 0.00 0.00 62 1036.7
20220930071422 56 211 0.9 8.7 0.00 0.00 0.00 62 1037.0
20220930070420 56 272 1.7 11.3 0.00 0.00 0.00 62 1036.5
20220930070151 56 200 1.7 14.8 0.00 0.00 0.00 63 1036.2
20220930065354 55 180 1.7 14.8 0.00 0.00 0.00 63 1036.3
20220930064852 55 169 0.9 11.3 0.00 0.00 0.00 64 1036.2
20220930064341 55 187 0.0 4.3 0.00 0.00 0.00 65 1036.4
20220930063809 55 199 0.0 2.6 0.00 0.00 0.00 65 1036.9
20220930063309 55 190 0.0 0.0 0.00 0.00 0.00 64 1037.4
20220930063018 55 211 0.0 0.0 0.00 0.00 0.00 63 1037.4
20220930062511 55 213 0.0 0.0 0.00 0.00 0.00 63 1037.5
20220930061738 55 215 0.0 0.0 0.00 0.00 0.00 62 1037.4
20220930061507 55 217 0.0 0.0 0.00 0.00 0.00 62 1037.4
20220930061005 55 218 0.0 0.0 0.00 0.00 0.00 62 1037.3
20220930060210 55 217 0.0 0.0 0.00 0.00 0.00 62 1037.2
20220930055914 55 218 0.0 0.9 0.00 0.00 0.00 61 1037.1
20220930055351 55 206 0.0 0.9 0.00 0.00 0.00 61 1037.0
20220930055235 56 190 0.0 5.2 0.00 0.00 0.00 60 1036.9
20220930054347 56 194 0.0 5.2 0.00 0.00 0.00 60 1036.9
20220930053850 56 195 0.0 8.7 0.00 0.00 0.00 60 1036.6
20220930053325 56 192 0.0 8.7 0.00 0.00 0.00 60 1036.4
20220930052532 56 179 0.0 6.1 0.00 0.00 0.00 59 1036.4
20220930052033 56 194 0.0 11.3 0.00 0.00 0.00 59 1036.3
20220930051759 56 184 0.0 11.3 0.00 0.00 0.00 59 1036.3
20220930051302 56 200 0.0 13.9 0.00 0.00 0.00 59 1036.2
20220930050504 57 197 0.9 13.9 0.00 0.00 0.00 58 1036.1
20220930050448 57 198 0.9 13.0 0.00 0.00 0.00 58 1036.1
20220930045440 57 197 0.9 13.0 0.00 0.00 0.00 57 1036.1
20220930045210 57 186 0.9 12.2 0.00 0.00 0.00 57 1036.2
20220930044410 57 183 0.9 12.2 0.00 0.00 0.00 57 1036.3
20220930044144 57 226 0.9 8.7 0.00 0.00 0.00 57 1036.3
20220930043347 57 284 0.9 10.4 0.00 0.00 0.00 56 1036.5
20220930043120 57 198 0.9 10.4 0.00 0.00 0.00 56 1036.7
20220930042835 57 193 0.0 7.8 0.00 0.00 0.00 56 1036.6
20220930041838 57 198 0.9 7.8 0.00 0.00 0.00 55 1036.6
20220930041324 57 192 0.9 13.0 0.00 0.00 0.00 55 1036.6
20220930041059 58 205 0.9 13.0 0.00 0.00 0.00 55 1036.6
20220930040300 58 157 0.0 9.6 0.00 0.00 0.00 55 1036.7
20220930035750 58 201 0.9 9.6 0.00 0.00 0.00 54 1036.7
20220930035525 58 224 0.9 9.6 0.00 0.00 0.00 54 1036.7
20220930035002 58 191 0.9 9.6 0.00 0.00 0.00 54 1036.9
20220930034454 58 186 0.0 7.8 0.00 0.00 0.00 53 1036.9
20220930034328 58 192 0.0 8.7 0.00 0.00 0.00 53 1036.7
20220930033832 58 199 0.0 8.7 0.00 0.00 0.00 53 1036.9
20220930033429 58 189 0.0 7.8 0.00 0.00 0.00 53 1036.7
20220930032632 58 194 0.0 8.7 0.00 0.00 0.00 53 1036.9
20220930031628 58 213 0.0 9.6 0.00 0.00 0.00 53 1036.7
20220930031127 58 218 0.0 9.6 0.00 0.00 0.00 52 1036.6
20220930030836 58 209 0.0 6.1 0.00 0.00 0.00 52 1036.7
20220930030042 58 182 0.0 6.1 0.00 0.00 0.00 52 1036.6
20220930025646 58 192 0.0 2.6 0.00 0.00 0.00 51 1036.7
20220930025530 58 188 0.0 3.5 0.00 0.00 0.00 51 1036.7
20220930025300 58 190 0.0 3.5 0.00 0.00 0.00 51 1036.7
20220930024025 59 213 0.0 5.2 0.00 0.00 0.00 50 1036.9
20220930023527 59 186 0.0 8.7 0.00 0.00 0.00 50 1036.9
20220930023507 59 189 0.0 8.7 0.00 0.00 0.00 50 1037.0
20220930022454 59 195 0.0 2.6 0.00 0.00 0.00 49 1036.9
20220930021953 59 117 0.0 0.9 0.00 0.00 0.00 49 1036.7
20220930021723 59 181 0.0 0.9 0.00 0.00 0.00 49 1036.7
20220930021204 59 194 0.0 0.9 0.00 0.00 0.00 49 1036.6
20220930020758 60 207 0.0 2.6 0.00 0.00 0.00 48 1036.7
20220930020651 60 290 0.0 2.6 0.00 0.00 0.00 48 1036.6
20220930015347 60 182 0.0 1.7 0.00 0.00 0.00 48 1036.6
20220930014849 60 51 0.0 1.7 0.00 0.00 0.00 48 1036.6
20220930014329 60 194 0.0 0.0 0.00 0.00 0.00 47 1036.4
20220930014321 60 236 0.0 0.0 0.00 0.00 0.00 48 1036.5
20220930013307 60 199 0.0 0.9 0.00 0.00 0.00 47 1036.3
20220930012745 61 190 0.0 0.9 0.00 0.00 0.00 46 1036.2
20220930012500 61 198 0.0 2.6 0.00 0.00 0.00 46 1036.3
20220930011728 61 159 0.0 2.6 0.00 0.00 0.00 46 1036.3
20220930011232 61 171 0.0 2.6 0.00 0.00 0.00 46 1036.3
20220930010713 61 188 0.0 0.0 0.00 0.00 0.00 45 1036.3
20220930010149 61 199 0.0 0.9 0.00 0.00 0.00 45 1036.3
20220930005922 62 197 0.0 0.9 0.00 0.00 0.00 45 1036.3
20220930005128 62 197 0.0 0.0 0.00 0.00 0.00 45 1036.3
20220930004848 62 168 0.0 0.0 0.00 0.00 0.00 44 1036.3
20220930004612 62 197 0.0 0.0 0.00 0.00 0.00 44 1036.3
20220930003608 63 169 0.0 0.0 0.00 0.00 0.00 44 1036.3
20220930003340 63 178 0.0 0.0 0.00 0.00 0.00 43 1036.3
20220930002608 63 177 0.0 0.0 0.00 0.00 0.00 42 1036.4
20220930002335 64 188 0.0 0.0 0.00 0.00 0.00 41 1036.4
20220930001602 64 173 0.0 0.0 0.00 0.00 0.00 40 1036.3
20220930001309 64 173 0.0 0.0 0.00 0.00 0.00 39 1036.2
20220930000743 65 173 0.0 0.0 0.00 0.00 0.00 38 1036.2
20220930000000 65 175 0.0 0.0 0.00 0.00 0.00 37 1036.3
20220929235705 65 188 0.0 1.7 0.00 0.00 0.00 37 1036.4
20220929235251 65 211 0.0 3.5 0.00 0.00 0.00 36 1036.5
20220929235143 66 190 0.0 3.5 0.00 0.00 0.00 36 1036.5
20220929233840 66 235 0.0 1.7 0.00 0.00 0.00 35 1036.5
20220929233314 66 191 0.0 5.2 0.00 0.00 0.00 35 1036.5
20220929232813 66 186 0.0 7.0 0.00 0.00 0.00 35 1036.6
20220929232309 67 217 0.0 7.0 0.00 0.00 0.00 35 1036.7
20220929231808 67 198 0.0 6.1 0.00 0.00 0.00 34 1036.9
20220929231307 67 197 0.0 2.6 0.00 0.00 0.00 34 1037.0
20220929230741 68 134 0.0 4.3 0.00 0.00 0.00 34 1037.1
20220929230443 68 111 0.0 10.4 0.00 0.00 0.00 33 1037.2
20220929225701 68 176 0.0 10.4 0.00 0.00 0.00 32 1037.2
20220929225430 68 177 0.0 3.5 0.00 0.00 0.00 33 1037.2
20220929224632 69 182 0.0 7.8 0.00 0.00 0.00 33 1037.2
20220929224610 69 191 0.0 8.7 0.00 0.00 0.00 32 1037.2
20220929223810 69 210 0.9 11.3 0.00 0.00 0.00 32 1037.3
20220929223038 70 140 0.9 13.9 0.00 0.00 0.00 32 1037.3
20220929222747 70 205 0.0 13.9 0.00 0.00 0.00 31 1037.4
20220929221947 70 169 0.0 3.5 0.00 0.00 0.00 32 1037.5
20220929221445 70 194 0.0 8.7 0.00 0.00 0.00 32 1037.5
20220929220917 71 180 0.0 8.7 0.00 0.00 0.00 32 1037.6
20220929220352 71 207 0.0 0.9 0.00 0.00 0.00 33 1037.6
20220929215835 71 193 0.0 10.4 0.00 0.00 0.00 32 1037.8
20220929215830 71 173 0.0 11.3 0.00 0.00 0.00 33 1037.7
20220929214832 71 221 0.0 4.3 0.00 0.00 0.00 33 1037.8
20220929214828 71 166 0.0 4.3 0.00 0.00 0.00 32 1037.8
20220929214037 71 182 0.0 10.4 0.00 0.00 0.00 33 1037.8
20220929213238 71 204 0.0 10.4 0.00 0.00 0.00 32 1038.0
20220929212949 70 151 0.9 13.0 0.00 0.00 0.00 33 1038.0
20220929212219 70 192 0.9 9.6 0.00 0.00 0.00 33 1038.1
20220929212213 70 205 0.9 13.0 0.00 0.00 0.00 32 1038.1
20220929211644 70 182 0.9 7.0 0.00 0.00 0.00 33 1038.1
20220929210944 71 194 1.7 16.5 0.00 0.00 0.00 33 1038.2
20220929210832 71 188 0.9 13.0 0.00 0.00 0.00 33 1038.2
20220929210207 71 180 0.9 16.5 0.00 0.00 0.00 32 1038.1
20220929205713 70 171 0.9 13.0 0.00 0.00 0.00 34 1038.2
20220929204804 70 191 0.9 13.0 0.00 0.00 0.00 33 1038.3
20220929204032 70 227 0.9 7.8 0.00 0.00 0.00 34 1038.3
20220929203503 69 184 0.9 10.4 0.00 0.00 0.00 35 1038.3
20220929203002 70 178 0.9 13.9 0.00 0.00 0.00 34 1038.4
20220929202952 69 195 0.9 10.4 0.00 0.00 0.00 34 1038.4
20220929202445 69 218 0.9 13.9 0.00 0.00 0.00 34 1038.4
20220929201714 70 167 0.9 13.9 0.00 0.00 0.00 33 1038.5
20220929200941 70 204 0.9 13.9 0.00 0.00 0.00 33 1038.5
20220929200418 70 180 0.9 12.2 0.00 0.00 0.00 32 1038.7
20220929195913 70 190 0.9 12.2 0.00 0.00 0.00 33 1038.7
20220929195641 69 160 0.9 14.8 0.00 0.00 0.00 33 1038.8
20220929194859 69 200 1.7 14.8 0.00 0.00 0.00 35 1038.8
20220929194358 68 200 0.9 13.9 0.00 0.00 0.00 35 1038.9
20220929193829 69 173 0.9 8.7 0.00 0.00 0.00 37 1039.0
20220929193559 69 203 0.9 12.2 0.00 0.00 0.00 34 1039.1
20220929192759 69 192 0.9 10.4 0.00 0.00 0.00 35 1039.1
20220929192245 70 221 0.9 8.7 0.00 0.00 0.00 34 1039.3
20220929191748 70 201 0.9 7.8 0.00 0.00 0.00 34 1039.4
20220929191246 69 188 0.9 10.4 0.00 0.00 0.00 36 1039.4
20220929190720 69 184 0.9 9.6 0.00 0.00 0.00 35 1039.5
20220929190215 68 175 1.7 15.6 0.00 0.00 0.00 39 1039.5
20220929185715 68 200 1.7 15.6 0.00 0.00 0.00 36 1039.7
20220929185146 67 184 3.5 16.5 0.00 0.00 0.00 35 1039.7
20220929184638 67 200 2.6 16.5 0.00 0.00 0.00 35 1039.8
20220929184137 68 225 0.0 4.3 0.00 0.00 0.00 35 1039.9
20220929183627 67 185 0.9 7.0 0.00 0.00 0.00 37 1040.0
20220929183353 68 190 0.9 7.0 0.00 0.00 0.00 36 1040.1
20220929182620 68 35 0.0 6.1 0.00 0.00 0.00 40 1040.1
20220929182556 67 194 0.0 13.0 0.00 0.00 0.00 40 1040.1
20220929181549 67 191 0.9 13.0 0.00 0.00 0.00 41 1040.2
20220929181252 65 175 1.7 15.6 0.00 0.00 0.00 42 1040.4
20220929181129 66 189 2.6 15.6 0.00 0.00 0.00 42 1040.3
20220929180018 66 200 0.9 13.0 0.00 0.00 0.00 41 1040.4
20220929175451 65 196 0.9 13.0 0.00 0.00 0.00 44 1040.5
20220929174923 65 202 0.0 13.0 0.00 0.00 0.00 44 1040.7
20220929174400 65 204 0.9 13.0 0.00 0.00 0.00 44 1040.7
20220929173831 64 148 0.9 13.0 0.00 0.00 0.00 46 1040.9
20220929173600 64 164 1.7 13.0 0.00 0.00 0.00 46 1040.8
20220929173056 64 261 2.6 15.6 0.00 0.00 0.00 46 1040.9
20220929172327 63 201 1.7 12.2 0.00 0.00 0.00 46 1041.0
20220929172322 63 248 2.6 15.6 0.00 0.00 0.00 46 1041.0
20220929171309 63 212 0.9 10.4 0.00 0.00 0.00 47 1041.1
20220929170808 63 188 0.9 11.3 0.00 0.00 0.00 47 1041.1
20220929170511 63 193 1.7 13.9 0.00 0.00 0.00 48 1041.2